Voltar ao catálogo

FENGYUN 1C DEB

AtivoPO
NORAD 30007·DEBRIS·🇨🇳 China

Lançado May 10, 1999 de Taiyuan Satellite Launch Center

Loading…

Próximas Passagens (próximas 24 horas)

TLE

AtualizadoSource: Space-Track

Época: Sep 14, 2026, 05:23 UTC

1 30007U 99025MG  26257.22473189  .00002318  00000-0  94831-3 0  9995
2 30007  99.1681 176.6531 0062384 305.8487 212.4208 14.27232593 12834

Acompanhe FENGYUN 1C DEB em tempo real com AllMySat

Download on the App Store